PBD572 UWKD-UUWW

Flight info

Callsign PBD572
Flight time 1h 19m
Altitude 34000
Route APTAR L158 DIMGI DIMGI3A
Aircraft B738/M-SDE2E3FGHIRWXY/LB1

Departure

Time 2026-04-28 14:59
Airport Kazan International Airport (UWKD)

Arrival

Time 2026-04-28 16:18
Airport Vnukovo International Airport (UUWW)
Time Latitude Longitude Altitude Speed Heading
2026-04-28 14:37 55.60654 49.29735 403 ft 0 kts 35°
2026-04-28 14:55 55.60654 49.29736 403 ft 1 kts 35°
2026-04-28 14:55 55.60670 49.29757 409 ft 5 kts 41°
2026-04-28 14:55 55.60674 49.29837 410 ft 9 kts 120°
2026-04-28 14:55 55.60633 49.29945 415 ft 9 kts 124°
2026-04-28 14:56 55.60589 49.30057 415 ft 13 kts 131°
2026-04-28 14:56 55.60502 49.30057 409 ft 15 kts 214°
2026-04-28 14:56 55.60405 49.29943 412 ft 18 kts 213°
2026-04-28 14:56 55.60290 49.29881 410 ft 9 kts 174°
2026-04-28 14:57 55.60218 49.29920 410 ft 13 kts 158°
2026-04-28 14:57 55.60160 49.29969 415 ft 15 kts 153°
2026-04-28 14:57 55.60022 49.30089 412 ft 19 kts 154°
2026-04-28 14:57 55.59912 49.30107 415 ft 0 kts 204°
2026-04-28 14:58 55.59899 49.30096 410 ft 4 kts 208°
2026-04-28 14:58 55.59861 49.30055 415 ft 9 kts 213°
2026-04-28 14:58 55.59824 49.29954 416 ft 11 kts 275°
2026-04-28 14:58 55.59868 49.29823 416 ft 22 kts 304°
2026-04-28 14:59 55.60095 49.29235 411 ft 93 kts 304°
2026-04-28 14:59 55.60572 49.28002 409 ft 151 kts 303°
2026-04-28 14:59 55.61246 49.26295 682 ft 180 kts 301°
2026-04-28 14:59 55.61962 49.24545 1665 ft 168 kts 292°
2026-04-28 15:00 55.62303 49.22607 2328 ft 173 kts 264°
2026-04-28 15:00 55.61964 49.20473 2645 ft 192 kts 243°
2026-04-28 15:00 55.61291 49.18280 3069 ft 207 kts 240°
2026-04-28 15:00 55.60593 49.15927 3629 ft 225 kts 242°
2026-04-28 15:01 55.59904 49.13436 4603 ft 224 kts 243°
2026-04-28 15:01 55.59252 49.10988 5559 ft 225 kts 243°
2026-04-28 15:01 55.58593 49.08445 6447 ft 228 kts 243°
2026-04-28 15:01 55.57945 49.05890 7340 ft 229 kts 244°
2026-04-28 15:02 55.57296 49.03295 7818 ft 232 kts 244°
2026-04-28 15:02 55.56647 49.00667 7964 ft 233 kts 244°
2026-04-28 15:02 55.56005 48.98049 8010 ft 233 kts 244°
2026-04-28 15:02 55.55363 48.95416 8018 ft 234 kts 244°
2026-04-28 15:03 55.54720 48.92769 8031 ft 235 kts 244°
2026-04-28 15:03 55.54073 48.90104 8015 ft 237 kts 245°
2026-04-28 15:03 55.53425 48.87429 8026 ft 237 kts 244°
2026-04-28 15:03 55.52784 48.84783 8019 ft 238 kts 244°
2026-04-28 15:04 55.52135 48.82107 8013 ft 237 kts 244°
2026-04-28 15:04 55.51489 48.79441 8024 ft 235 kts 244°
2026-04-28 15:04 55.50846 48.76792 8017 ft 234 kts 244°
2026-04-28 15:04 55.50207 48.74156 8012 ft 234 kts 245°
2026-04-28 15:05 55.49568 48.71527 8017 ft 232 kts 245°
2026-04-28 15:05 55.48931 48.68911 8020 ft 232 kts 245°
2026-04-28 15:05 55.48305 48.66334 8017 ft 232 kts 245°
2026-04-28 15:05 55.47670 48.63731 8016 ft 231 kts 245°
2026-04-28 15:06 55.47033 48.61126 8024 ft 232 kts 245°
2026-04-28 15:06 55.46394 48.58513 8039 ft 233 kts 245°
2026-04-28 15:06 55.45756 48.55887 8014 ft 234 kts 247°
2026-04-28 15:06 55.45518 48.53045 8051 ft 239 kts 266°
2026-04-28 15:07 55.45782 48.50088 8472 ft 250 kts 278°
2026-04-28 15:07 55.46273 48.47138 9370 ft 251 kts 280°
2026-04-28 15:07 55.46803 48.44188 10179 ft 256 kts 281°
2026-04-28 15:07 55.47361 48.41062 10433 ft 280 kts 281°
2026-04-28 15:08 55.47954 48.37705 10630 ft 302 kts 281°
2026-04-28 15:08 55.48599 48.34039 10892 ft 322 kts 282°
2026-04-28 15:08 55.49271 48.30223 11524 ft 329 kts 282°
2026-04-28 15:08 55.49951 48.26354 12317 ft 331 kts 282°
2026-04-28 15:09 55.50633 48.22452 13060 ft 335 kts 282°
2026-04-28 15:09 55.51319 48.18497 13745 ft 339 kts 282°
2026-04-28 15:09 55.52011 48.14489 14375 ft 343 kts 282°
2026-04-28 15:09 55.52470 48.11814 14810 ft 345 kts 282°
2026-04-28 15:10 55.53398 48.06399 15644 ft 351 kts 282°
2026-04-28 15:10 55.54104 48.02260 16260 ft 354 kts 282°
2026-04-28 15:10 55.54818 47.98064 16908 ft 358 kts 282°
2026-04-28 15:10 55.55536 47.93836 17527 ft 361 kts 282°
2026-04-28 15:11 55.56259 47.89562 18137 ft 365 kts 282°
2026-04-28 15:11 55.56987 47.85248 18657 ft 369 kts 282°
2026-04-28 15:11 55.57721 47.80896 19222 ft 370 kts 282°
2026-04-28 15:11 55.58457 47.76520 19790 ft 373 kts 282°
2026-04-28 15:12 55.59187 47.72164 20290 ft 376 kts 282°
2026-04-28 15:12 55.59929 47.67726 20920 ft 376 kts 282°
2026-04-28 15:12 55.60670 47.63282 21540 ft 377 kts 282°
2026-04-28 15:12 55.61411 47.58827 22023 ft 380 kts 282°
2026-04-28 15:13 55.62159 47.54317 22490 ft 383 kts 282°
2026-04-28 15:13 55.62910 47.49776 22974 ft 386 kts 283°
2026-04-28 15:13 55.63666 47.45197 23433 ft 388 kts 283°
2026-04-28 15:13 55.64422 47.40599 23786 ft 391 kts 282°
2026-04-28 15:14 55.65185 47.35952 24113 ft 395 kts 282°
2026-04-28 15:14 55.65942 47.31324 24437 ft 398 kts 282°
2026-04-28 15:14 55.66716 47.26590 24763 ft 402 kts 282°
2026-04-28 15:14 55.67494 47.21820 25070 ft 405 kts 282°
2026-04-28 15:15 55.68275 47.17010 25389 ft 408 kts 282°
2026-04-28 15:15 55.68795 47.13797 25582 ft 410 kts 282°
2026-04-28 15:15 55.69848 47.07276 26084 ft 413 kts 282°
2026-04-28 15:15 55.70639 47.02369 26397 ft 415 kts 282°
2026-04-28 15:16 55.71422 46.97491 26658 ft 419 kts 282°
2026-04-28 15:16 55.72220 46.92511 26914 ft 422 kts 282°
2026-04-28 15:16 55.73023 46.87483 27201 ft 425 kts 282°
2026-04-28 15:16 55.73830 46.82423 27477 ft 427 kts 282°
2026-04-28 15:17 55.74638 46.77339 27755 ft 430 kts 282°
2026-04-28 15:17 55.75448 46.72222 28038 ft 432 kts 282°
2026-04-28 15:17 55.76259 46.67090 28399 ft 431 kts 282°
2026-04-28 15:17 55.77057 46.62032 28853 ft 430 kts 282°
2026-04-28 15:18 55.77861 46.56917 29230 ft 430 kts 282°
2026-04-28 15:18 55.78662 46.51796 29538 ft 432 kts 282°
2026-04-28 15:18 55.79392 46.46604 29740 ft 434 kts 277°
2026-04-28 15:18 55.79700 46.41262 29882 ft 435 kts 270°
2026-04-28 15:19 55.79854 46.35899 30209 ft 434 kts 270°
2026-04-28 15:19 55.80002 46.30560 30603 ft 431 kts 270°
2026-04-28 15:19 55.80154 46.25239 30905 ft 431 kts 270°
2026-04-28 15:19 55.80309 46.19979 31129 ft 433 kts 270°
2026-04-28 15:20 55.80471 46.14639 31389 ft 433 kts 270°
2026-04-28 15:20 55.80635 46.09289 31696 ft 433 kts 270°
2026-04-28 15:20 55.80798 46.03955 31991 ft 432 kts 270°
2026-04-28 15:20 55.80960 45.98624 32252 ft 433 kts 270°
2026-04-28 15:21 55.81120 45.93279 32520 ft 433 kts 270°
2026-04-28 15:21 55.81278 45.87946 32791 ft 432 kts 270°
2026-04-28 15:21 55.81434 45.82596 33039 ft 433 kts 270°
2026-04-28 15:21 55.81586 45.77249 33281 ft 433 kts 270°
2026-04-28 15:22 55.81737 45.71887 33460 ft 436 kts 270°
2026-04-28 15:22 55.81884 45.66553 33590 ft 439 kts 270°
2026-04-28 15:22 55.82032 45.61139 33718 ft 440 kts 270°
2026-04-28 15:23 55.82322 45.50238 33712 ft 440 kts 270°
2026-04-28 15:23 55.82601 45.39449 33712 ft 435 kts 270°
2026-04-28 15:24 55.82867 45.28730 33715 ft 433 kts 270°
2026-04-28 15:24 55.83122 45.18096 33716 ft 433 kts 270°
2026-04-28 15:25 55.83370 45.07410 33712 ft 433 kts 270°
2026-04-28 15:25 55.83569 44.98523 33720 ft 433 kts 271°
2026-04-28 15:26 55.83803 44.87796 33709 ft 434 kts 270°
2026-04-28 15:26 55.84068 44.75300 33710 ft 436 kts 270°
2026-04-28 15:27 55.84253 44.66261 33700 ft 437 kts 270°
2026-04-28 15:27 55.84463 44.55530 33701 ft 438 kts 270°
2026-04-28 15:28 55.84666 44.44688 33699 ft 439 kts 270°
2026-04-28 15:28 55.84891 44.32075 33692 ft 439 kts 270°
2026-04-28 15:29 55.85044 44.22978 33716 ft 439 kts 270°
2026-04-28 15:29 55.85219 44.12169 33704 ft 440 kts 270°
2026-04-28 15:30 55.85384 44.01282 33693 ft 440 kts 270°
2026-04-28 15:30 55.85540 43.90390 33701 ft 440 kts 270°
2026-04-28 15:31 55.85687 43.79499 33697 ft 440 kts 270°
2026-04-28 15:31 55.85823 43.68674 33687 ft 440 kts 270°
2026-04-28 15:32 55.85952 43.57798 33702 ft 440 kts 270°
2026-04-28 15:32 55.86070 43.46908 33701 ft 440 kts 270°
2026-04-28 15:33 55.86183 43.36017 33694 ft 440 kts 270°
2026-04-28 15:33 55.86289 43.25123 33700 ft 440 kts 270°
2026-04-28 15:34 55.86385 43.14305 33701 ft 440 kts 270°
2026-04-28 15:34 55.86471 43.03408 33700 ft 440 kts 270°
2026-04-28 15:35 55.86548 42.92498 33708 ft 441 kts 270°
2026-04-28 15:35 55.86645 42.76230 33700 ft 441 kts 269°
2026-04-28 15:36 55.86698 42.65298 33696 ft 441 kts 269°
2026-04-28 15:36 55.86742 42.54388 33701 ft 441 kts 269°
2026-04-28 15:37 55.86775 42.43482 33692 ft 441 kts 269°
2026-04-28 15:37 55.86799 42.32654 33698 ft 440 kts 269°
2026-04-28 15:38 55.86814 42.21765 33701 ft 439 kts 269°
2026-04-28 15:38 55.86819 42.10890 33701 ft 439 kts 269°
2026-04-28 15:39 55.86814 42.00025 33702 ft 439 kts 269°
2026-04-28 15:39 55.86801 41.89239 33708 ft 439 kts 269°
2026-04-28 15:40 55.86778 41.78358 33710 ft 439 kts 269°
2026-04-28 15:40 55.86548 41.67487 33708 ft 440 kts 266°
2026-04-28 15:41 55.86170 41.56619 33702 ft 440 kts 266°
2026-04-28 15:41 55.85803 41.45763 33708 ft 440 kts 266°
2026-04-28 15:42 55.85454 41.34972 33711 ft 440 kts 266°
2026-04-28 15:42 55.85101 41.24102 33715 ft 440 kts 266°
2026-04-28 15:43 55.84740 41.13237 33723 ft 440 kts 266°
2026-04-28 15:43 55.84367 41.02369 33715 ft 440 kts 266°
2026-04-28 15:44 55.83987 40.91560 33720 ft 440 kts 266°
2026-04-28 15:44 55.83595 40.80685 33708 ft 440 kts 266°
2026-04-28 15:45 55.83195 40.69831 33711 ft 440 kts 266°
2026-04-28 15:45 55.82783 40.58978 33726 ft 440 kts 266°
2026-04-28 15:46 55.82346 40.48123 33498 ft 444 kts 266°
2026-04-28 15:46 55.82120 40.42633 32994 ft 444 kts 266°
2026-04-28 15:46 55.81897 40.37244 32429 ft 441 kts 266°
2026-04-28 15:47 55.81670 40.31820 31830 ft 439 kts 266°
2026-04-28 15:47 55.81443 40.26442 31359 ft 434 kts 267°
2026-04-28 15:47 55.81216 40.21119 30873 ft 430 kts 267°
2026-04-28 15:47 55.80989 40.15842 30400 ft 426 kts 267°
2026-04-28 15:48 55.80762 40.10608 29941 ft 422 kts 267°
2026-04-28 15:48 55.80536 40.05439 29472 ft 417 kts 268°
2026-04-28 15:48 55.80311 40.00351 29043 ft 409 kts 268°
2026-04-28 15:48 55.80089 39.95376 28438 ft 407 kts 268°
2026-04-28 15:49 55.79867 39.90407 27972 ft 401 kts 269°
2026-04-28 15:49 55.79646 39.85563 27876 ft 387 kts 269°
2026-04-28 15:49 55.79429 39.80854 27686 ft 376 kts 269°
2026-04-28 15:49 55.79170 39.76291 27580 ft 366 kts 267°
2026-04-28 15:50 55.78868 39.71831 27498 ft 365 kts 267°
2026-04-28 15:50 55.78554 39.67293 27425 ft 375 kts 267°
2026-04-28 15:50 55.78234 39.62651 27320 ft 382 kts 267°
2026-04-28 15:50 55.77917 39.58039 27210 ft 378 kts 267°
2026-04-28 15:51 55.77603 39.53442 27083 ft 372 kts 267°
2026-04-28 15:51 55.77294 39.48888 26994 ft 373 kts 267°
2026-04-28 15:51 55.76983 39.44300 26907 ft 374 kts 267°
2026-04-28 15:51 55.76669 39.39722 26790 ft 373 kts 267°
2026-04-28 15:52 55.76352 39.35158 26689 ft 372 kts 267°
2026-04-28 15:52 55.76033 39.30613 26582 ft 370 kts 267°
2026-04-28 15:52 55.75713 39.26083 26466 ft 369 kts 267°
2026-04-28 15:52 55.75398 39.21631 26372 ft 369 kts 267°
2026-04-28 15:53 55.75078 39.17116 26276 ft 368 kts 267°
2026-04-28 15:53 55.74757 39.12610 26191 ft 369 kts 267°
2026-04-28 15:53 55.74433 39.08087 26083 ft 369 kts 267°
2026-04-28 15:53 55.74109 39.03572 25982 ft 369 kts 267°
2026-04-28 15:54 55.73784 38.99089 25874 ft 369 kts 267°
2026-04-28 15:54 55.73453 38.94548 25772 ft 369 kts 267°
2026-04-28 15:54 55.73116 38.90017 25423 ft 373 kts 267°
2026-04-28 15:54 55.72764 38.85484 25060 ft 368 kts 267°
2026-04-28 15:55 55.72413 38.81011 24688 ft 364 kts 267°
2026-04-28 15:55 55.72067 38.76588 24326 ft 360 kts 267°
2026-04-28 15:55 55.71726 38.72258 23957 ft 356 kts 267°
2026-04-28 15:55 55.71390 38.67948 23601 ft 352 kts 268°
2026-04-28 15:56 55.71065 38.63667 23231 ft 347 kts 268°
2026-04-28 15:56 55.70749 38.59442 22828 ft 344 kts 268°
2026-04-28 15:56 55.70436 38.55272 22484 ft 338 kts 268°
2026-04-28 15:56 55.70124 38.51158 22127 ft 335 kts 267°
2026-04-28 15:57 55.69812 38.47077 21809 ft 335 kts 267°
2026-04-28 15:57 55.69497 38.42952 21466 ft 340 kts 267°
2026-04-28 15:57 55.69183 38.38845 21130 ft 341 kts 267°
2026-04-28 15:57 55.68863 38.34693 20779 ft 339 kts 266°
2026-04-28 15:58 55.68546 38.30583 20428 ft 336 kts 266°
2026-04-28 15:58 55.68228 38.26495 20091 ft 333 kts 266°
2026-04-28 15:58 55.67911 38.22438 19770 ft 331 kts 266°
2026-04-28 15:58 55.67593 38.18463 19678 ft 322 kts 266°
2026-04-28 15:59 55.67274 38.14517 19574 ft 325 kts 266°
2026-04-28 15:59 55.66951 38.10530 19498 ft 328 kts 265°
2026-04-28 15:59 55.66625 38.06534 19407 ft 326 kts 265°
2026-04-28 15:59 55.66306 38.02648 19249 ft 319 kts 265°
2026-04-28 16:00 55.65988 37.98769 19254 ft 320 kts 265°
2026-04-28 16:00 55.65666 37.94834 19268 ft 326 kts 265°
2026-04-28 16:00 55.65336 37.90828 19254 ft 331 kts 266°
2026-04-28 16:00 55.65000 37.86770 19262 ft 334 kts 267°
2026-04-28 16:01 55.64847 37.82691 19267 ft 334 kts 269°
2026-04-28 16:01 55.64258 37.78660 19258 ft 345 kts 250°
2026-04-28 16:01 55.62908 37.75091 19265 ft 355 kts 235°
2026-04-28 16:01 55.61346 37.71812 19270 ft 354 kts 237°
2026-04-28 16:02 55.59841 37.68359 19270 ft 352 kts 239°
2026-04-28 16:02 55.58397 37.64871 19259 ft 351 kts 240°
2026-04-28 16:02 55.56981 37.61403 19215 ft 340 kts 240°
2026-04-28 16:02 55.55357 37.58420 19068 ft 339 kts 219°
2026-04-28 16:03 55.53223 37.56701 18768 ft 342 kts 198°
2026-04-28 16:03 55.50864 37.56066 18313 ft 343 kts 191°
2026-04-28 16:03 55.48494 37.55596 17774 ft 342 kts 191°
2026-04-28 16:03 55.46147 37.55119 17275 ft 339 kts 191°
2026-04-28 16:04 55.43850 37.54635 16808 ft 334 kts 192°
2026-04-28 16:04 55.41555 37.54131 16365 ft 330 kts 192°
2026-04-28 16:04 55.39314 37.53635 16086 ft 321 kts 192°
2026-04-28 16:04 55.37100 37.53142 15688 ft 321 kts 192°
2026-04-28 16:05 55.34888 37.52674 15378 ft 320 kts 189°
2026-04-28 16:05 55.32656 37.52701 15069 ft 321 kts 180°
2026-04-28 16:05 55.30433 37.52989 14760 ft 319 kts 180°
2026-04-28 16:05 55.28226 37.53259 14470 ft 317 kts 181°
2026-04-28 16:06 55.26070 37.53384 14284 ft 301 kts 191°
2026-04-28 16:06 55.24199 37.52297 13974 ft 280 kts 219°
2026-04-28 16:06 55.22832 37.50057 13661 ft 263 kts 239°
2026-04-28 16:06 55.21964 37.47318 13216 ft 254 kts 253°
2026-04-28 16:07 55.21583 37.44355 12729 ft 247 kts 271°
2026-04-28 16:07 55.21780 37.41427 12265 ft 241 kts 293°
2026-04-28 16:07 55.24044 37.37360 11423 ft 240 kts 332°
2026-04-28 16:08 55.25671 37.36678 10987 ft 245 kts 352°
2026-04-28 16:08 55.27355 37.36700 10596 ft 245 kts 356°
2026-04-28 16:08 55.29051 37.36829 10179 ft 243 kts 356°
2026-04-28 16:09 55.32350 37.37252 9596 ft 234 kts
2026-04-28 16:09 55.33921 37.37974 9219 ft 233 kts
2026-04-28 16:09 55.35475 37.38760 8764 ft 233 kts
2026-04-28 16:10 55.38571 37.40310 7941 ft 230 kts
2026-04-28 16:10 55.40111 37.41067 7528 ft 229 kts
2026-04-28 16:10 55.43139 37.42540 6911 ft 220 kts
2026-04-28 16:11 55.45887 37.43873 6539 ft 195 kts
2026-04-28 16:11 55.48471 37.45110 5776 ft 190 kts
2026-04-28 16:12 55.50999 37.46322 4971 ft 186 kts
2026-04-28 16:12 55.52236 37.46920 4611 ft 182 kts
2026-04-28 16:13 55.54608 37.48069 3862 ft 177 kts
2026-04-28 16:13 55.55753 37.48630 3717 ft 165 kts
2026-04-28 16:13 55.57933 37.49689 3121 ft 159 kts
2026-04-28 16:14 55.59964 37.49649 2845 ft 141 kts 331°
2026-04-28 16:14 55.61766 37.48422 2596 ft 133 kts 331°
2026-04-28 16:15 55.63179 37.46884 2328 ft 122 kts 281°
2026-04-28 16:15 55.63090 37.45340 2260 ft 130 kts 269°
2026-04-28 16:15 55.62915 37.43778 2203 ft 129 kts 263°
2026-04-28 16:16 55.62409 37.40700 2155 ft 133 kts 258°
2026-04-28 16:16 55.62081 37.39159 1990 ft 135 kts 257°
2026-04-28 16:17 55.61389 37.36081 1617 ft 136 kts 253°
2026-04-28 16:17 55.61039 37.34527 1391 ft 139 kts 251°
2026-04-28 16:17 55.60674 37.32900 1219 ft 143 kts 250°
2026-04-28 16:17 55.60310 37.31269 1014 ft 145 kts 250°
2026-04-28 16:18 55.59928 37.29608 802 ft 147 kts 249°
2026-04-28 16:18 55.59571 37.27974 680 ft 133 kts 249°
2026-04-28 16:18 55.59296 37.26771 668 ft 78 kts 248°
2026-04-28 16:18 55.59154 37.26138 667 ft 26 kts 248°
2026-04-28 16:19 55.59093 37.25863 667 ft 23 kts 249°
2026-04-28 16:19 55.59035 37.25602 664 ft 23 kts 250°
2026-04-28 16:19 55.59016 37.25289 659 ft 29 kts 276°
2026-04-28 16:19 55.59061 37.25057 658 ft 14 kts 328°
2026-04-28 16:20 55.59131 37.25046 658 ft 7 kts 40°
2026-04-28 16:20 55.59150 37.25096 658 ft 6 kts 64°
2026-04-28 16:20 55.59167 37.25169 659 ft 7 kts 67°
2026-04-28 16:20 55.59194 37.25285 661 ft 15 kts 68°
2026-04-28 16:21 55.59242 37.25500 664 ft 23 kts 68°
2026-04-28 16:21 55.59301 37.25762 666 ft 23 kts 69°
2026-04-28 16:21 55.59356 37.26013 666 ft 22 kts 68°
2026-04-28 16:21 55.59413 37.26264 668 ft 21 kts 68°
2026-04-28 16:22 55.59467 37.26500 667 ft 21 kts 68°
2026-04-28 16:22 55.59508 37.26685 668 ft 0 kts 68°
2026-04-28 16:22 55.59508 37.26686 668 ft 0 kts 68°
2026-04-28 16:23 55.59515 37.26719 668 ft 6 kts 68°
2026-04-28 16:23 55.59547 37.26825 668 ft 13 kts 56°
2026-04-28 16:23 55.59620 37.26976 667 ft 18 kts 47°
2026-04-28 16:23 55.59656 37.27044 668 ft 0 kts 46°
2026-04-28 16:24 55.59657 37.27045 668 ft 1 kts 46°
2026-04-28 16:24 55.59673 37.27076 666 ft 7 kts 46°
2026-04-28 16:24 55.59721 37.27165 669 ft 12 kts 46°
2026-04-28 16:24 55.59792 37.27296 671 ft 17 kts 46°
2026-04-28 16:25 55.59881 37.27458 676 ft 19 kts 46°
2026-04-28 16:25 55.59926 37.27542 675 ft 6 kts 47°
2026-04-28 16:25 55.59952 37.27610 679 ft 7 kts 60°
2026-04-28 16:25 55.59992 37.27696 678 ft 11 kts 47°
2026-04-28 16:26 55.60004 37.27817 679 ft 6 kts 114°
2026-04-28 16:26 55.59997 37.27878 677 ft 2 kts 62°
2026-04-28 16:26 55.60023 37.27911 679 ft 5 kts 26°
2026-04-28 16:26 55.60031 37.27919 679 ft 0 kts 24°
2026-04-28 16:27 55.60038 37.27924 679 ft 2 kts 24°
2026-04-28 16:27 55.60039 37.27925 679 ft 0 kts 24°